Regional Weather Roundup
Issued by NWS Wakefield, VA

Home | Current Version | Previous Version | Graphics & Text | Print | Product List | Glossary On
Versions: 1 2 3 4 5 6 7 8 9 10 11 12 13 14 15 16 17 18 19 20 21 22 23 24 25 26 27 28 29 30 31 32 33 34 35 36 37 38 39 40 41 42 43 44 45 46 47 48 49 50
000
ASUS41 KAKQ 171914
RWRAKQ

REGIONAL WEATHER ROUNDUP
NATIONAL WEATHER SERVICE WAKEFIELD VA
300 PM EDT FRI APR 17 2015

Note: "fair" indicates few or no clouds below 12,000 feet with no
significant weather and/or obstructions to visibility. * = Denotes
station may not report precipitation (e.g., rain,snow,etc.),
thunder or fog.

VAZ042-051-052>054-056-172000-
NORTHERN VIRGINIA

CITY           SKY/WX    TMP DP  RH WIND       PRES   REMARKS
WASH NATIONAL  PTSUNNY   78  62  57 S7        29.99F
DULLES         PTSUNNY   75  57  53 N5        30.00F
FORT BELVOIR   PTSUNNY   78  60  53 E6        29.98F
QUANTICO       MOSUNNY   72  61  68 S9        29.99F
FREDERICKSBRG* MOSUNNY   81  59  47 SE5       29.98F
STAFFORD*      MOSUNNY   79  54  42 S5        30.02F
WARRENTON      PTSUNNY   78  59  52 S5        29.99F
CULPEPER*      SUNNY     81  59  47 CALM      29.99F
MANASSAS*      PTSUNNY   75  57  53 SE5       29.99F
LEESBURG*      PTSUNNY   75  61  60 NW10G16   30.00F
WINCHESTER     SUNNY     77  52  41 CALM      30.00F
FRONT ROYAL*   CLOUDY    73  55  53 CALM      29.98F
LURAY*         CLOUDY    77  59  53 NE3       30.00F
$$

VAZ048-049-060>072-079>083-172000-
CENTRAL AND SOUTH CENTRAL VIRGINIA

CITY           SKY/WX    TMP DP  RH WIND       PRES   REMARKS
RICHMOND       PTSUNNY   80  58  46 SW9       30.00F
CHESTERFIELD*  NOT AVBL
PETERSBURG*    CLOUDY    78  57  48 SW10      30.01F
HANOVER        PTSUNNY   78  57  48 W6        30.01F
TAPPAHANNOCK*  PTSUNNY   76  54  46 SW7       30.02F
QUINTON*       MOCLDY    75  61  60 S3        30.00F
CHARLOTTSVILLE CLOUDY    77  56  48 VRB3      29.98F
GORDONSVILLE*  MOCLDY    77  56  47 S6        29.98F
ORANGE*        PTSUNNY   79  55  44 W6        30.00F
LOUISA*        CLOUDY    81  57  44 CALM      29.99F
BUMPASS*       FAIR      76  58  53 CALM      29.99F
FARMVILLE*     PTSUNNY   79  59  50 SW8       30.00F
CREWE*         MOCLDY    77  58  51 S7        30.01F
FORT PICKETT*  MOCLDY    76  60  56 S13G23    30.02F
CHASE CITY*    FAIR      78  64  61 SW3       30.03F
CLARKSVILLE*   MOCLDY    73  61  64 S6        30.02F
SOUTH HILL*    PTSUNNY   73  60  63 SW8       30.09F
LAWRENCEVILLE* MOCLDY    74  63  68 S7        30.03F
EMPORIA*       CLOUDY    73  61  64 S6        30.05F
$$

VAZ088>098-172000-
SOUTHEAST VIRGINIA

CITY           SKY/WX    TMP DP  RH WIND       PRES   REMARKS
NORFOLK        CLOUDY    76  60  57 VRB5      30.02F
VIRGINIA BEACH PTSUNNY   77  62  59 SE5       30.02F
NORFOLK NAVAL  PTSUNNY   79  61  53 SW7       30.04F
WEST POINT*    PTSUNNY   78  57  48 S12       30.02F
SALUDA*        CLOUDY    74  61  65 SW9       30.00F
NEWPORT NEWS   PTSUNNY   77  62  59 S13       30.02F
LANGLEY AFB    DRIZZLE   75  63  64 SW10      30.01F
FORT EUSTIS    MOSUNNY   74  61  63 S10       30.00F
WILLIAMSBURG*  SUNNY     81  64  57 S6        30.02F
HR EXEC AP*    CLOUDY    75  63  64 SW6       30.04F
FRANKLIN*      CLOUDY   N/A N/A N/A SW7       30.04F
WAKEFIELD      PTSUNNY   76  61  59 SW8       30.02F
$$

VAZ020-022-025-037-045-172000-
WEST CENTRAL AND SOUTHWEST VIRGINIA

CITY           SKY/WX    TMP DP  RH WIND       PRES   REMARKS
STAUNTON*      PTSUNNY   77  57  50 S8        30.02F
WAYNESBORO*    FAIR      73  56  55 SW7G17    30.02F
HOT SPRINGS VA CLOUDY    64  50  61 NW13G18   30.11F
LYNCHBURG      MOSUNNY   76  58  53 SW9       30.03F
DANVILLE       MOSUNNY   76  58  53 CALM      30.03F
SOUTH BOSTON*  FAIR      76  60  58 W6        30.03F
MARTINSVILLE   MOSUNNY   77  58  51 CALM      30.06F
ROANOKE        PTSUNNY   77  54  44 NW12      30.04F
BLACKSBURG     MOSUNNY   71  53  53 CALM      30.10F
DUBLIN*        CLOUDY    74  53  49 CALM      30.08F
MARION*        PTSUNNY   72  55  54 W5        30.12F
HILLSVILLE*    PTSUNNY   71  55  58 W7        30.10F
RICHLANDS*     MOCLDY    71  51  49 CALM      30.10F
WISE*          PTSUNNY   70  50  49 N3        30.12F
ABINGDON*      MOSUNNY   74  55  50 NW3       30.09F
$$

MDZ021>025-VAZ099-100-172000-
SOUTHERN MARYLAND AND THE DELMARVA PENINSULA

CITY           SKY/WX    TMP DP  RH WIND       PRES   REMARKS
PATUXENT RIVER PTSUNNY   65  57  75 SE5       30.01F
BAY BRIDGE APT   N/A     73  57  56 SE10      29.99F
LEONARDTOWN    PTSUNNY   73  55  53 S6        30.01F
DOVER          PTSUNNY   73  62  68 SW10      29.96F
GEORGETOWN     PTSUNNY   73  59  61 SW9       30.00F
EASTON         MOSUNNY   75  63  64 S6        30.04F
CAMBRIDGE      PTSUNNY   75  61  60 S7        30.00F
SALISBURY      CLOUDY    73  59  61 W10       30.01F
OCEAN CITY     MOSUNNY   68  59  73 S10       30.01F
WALLOPS ISLAND CLOUDY    68  61  78 S14       30.03F
ACCOMACK*      PTSUNNY   73  57  56 SW13      30.02F
$$

NCZ012>017-030>032-172000-
NORTH CENTRAL AND EASTERN NORTH CAROLINA

CITY           SKY/WX    TMP DP  RH WIND       PRES   REMARKS
ROANOKE RAPIDS FAIR      73  64  73 S8        30.04F
RALEIGH        PTSUNNY   76  64  66 SW7       30.05F
ELIZABETH CITY CLOUDY    72  62  71 E5        30.05F
AHOSKIE*       PTSUNNY   73  63  69 CALM      30.05F
EDENTON*       CLOUDY    75  62  64 W6        30.05F
CURRITUCK*     CLOUDY    75  57  53 CALM      30.05F
KILL DEVIL HLS PTSUNNY   73  60  63 E6        30.04F
MANTEO         PTSUNNY   72  62  70 S10       30.05F
CAPE HATTERAS  CLOUDY    71  63  75 S6        30.06F
TARBORO*       CLOUDY    73  64  73 W6        30.06F
GOLDSBORO      PTSUNNY   75  65  70 CALM      30.02F
WASHINGTON     PTSUNNY   75  63  66 SW5       30.05F
GREENVILLE     PTSUNNY   75  64  69 CALM      30.06F
NEW BERN       CLOUDY    73  63  70 SE7       30.06F
WILMINGTON     CLOUDY    74  65  73 E8        30.03F
$$

VAZ048-172000-
ELSEWHERE

CITY           SKY/WX    TMP DP  RH WIND       PRES   REMARKS
HARRISBURG PA  PTSUNNY   71  55  56 NW7       29.98F
BALTIMORE      CLOUDY    75  58  55 W6        29.98F
ANNAPOLIS      MOSUNNY   65  57  75 SE9       29.99F
ANDREWS AFB    PTSUNNY   76  58  54 W6        29.98F
PHILADELPHIA   PTSUNNY   72  57  59 SW6       29.98F
HENDERSON NC   MOSUNNY   74  58  57 W5        30.04F
GREENSBORO     PTSUNNY   73  60  63 VRB3      30.05F
ROCKY MOUNT    MOSUNNY   75  64  68 MISG      30.05F
$$

VAZ100-172000-
MARINE

STATION/POSITION TIME  TEMP    WIND        PRES    WAVE   SWELL
                       AIR SEA DIR/SP/G            HT/PER HT/PER
                 (UTC) (F)     (DEG/KT/KT) (MB)    (FT/S) (FT/S)
CAPE MAY NJ      1800   65 52  210/  7/  9 1016.3F
LEWES DE         1800   70 49  250/ 10/ 14 1016.5F
15NM E FENWICK I 1850   52 49              1016.5F   4/10
OCEAN-CITY-INLET 1800   54 50  200/ 11/ 12 1017.0F
WACHAPREAGUE VA  1800   69 64  230/  8/ 13 1017.7F
THOMAS POINT MD  1900   62 54  160/ 12/ 12 1016.3F
GOOSES REEF MD   1900   58 56  160/ 12/ 12   N/A     1/ 2
COVE POINT MD    1800   56     180/ 11/ 12 1016.6F
SOLOMONS ISLAND  1800      53                N/A
BISHOPS HEAD MD  1800   66 61  190/ 13/ 15 1016.5F
PINEY POINT MD   1812          130/  2/  2   N/A
CAMBRIDGE MD     1800   71 56  260/  6/ 11 1016.4F
LEWISETTA VA     1800   70 60              1016.3F
RAPPAHANNOCK LGT 1800          180/ 11/ 12 1018.2F
STINGRAY PT      1900   59 56  160/  8/ 10 1019.3F   0
YORK RVR RNG VA  1800   65     360/  3/  3 1017.1F
YORKTOWN VA      1800   71 57  260/  5/ 10 1017.1F
DOMINION TERM VA 1800   69     260/  2/  3 1017.8F
KIPTOPEKE VA     1800      60  180/  4/  4   N/A
CHES BAY BRIDGE  1800   59 56   60/  4/  7 1017.3F
CAPE HENRY VA    1800   68     130/  8/ 11 1016.5F
CHESAPEAKE LGHT  1800   59     170/ 16/ 16 1018.5F
WILLOUBY STN VA  1800   67     190/  2/  2 1018.3F
S CRANEY ISL VA  1800           10/  4/  4 1017.6F
CAPE HENRY BUOY  1828      51                N/A     4/ 8   2/11
1ST LANDING BUOY 1900   59     130/ 10/ 10 1016.6F   2/ 5
OFFSHORE WE BUOY 1811      49                N/A     5/10   3/10
64NM E OF VA BCH 1850   62 57  190/  6/  8 1017.5F   5/ 7   5/ 7
44056 DUCK FRF   1811      55                N/A     4/ 8   2/11
OREGON INLET NC  1800   69 57  100/  4/  8 1018.3F
HATTERAS NC      1800   72 65  130/  4/  5 1018.2F
DIAMOND SHLS NC  1850   72 74  190/  4/  6 1017.9F   6/ 8   7/ 8
CAPE LOOKOUT NC  1900   69      90/  5/  5 1017.5F
$$


USA.gov is the U.S. government's official web portal to all federal, state and local government web resources and services.